This is the latest recevied weather packets stored in our database for station/object W0VI. If no packets are shown the sender has not sent any weather packets the latest 10 day(s).
| Time | Temp. | Humidity | Pressure | Rain* | Wind** | Luminosity | Snow |
|---|---|---|---|---|---|---|---|
| 1778167093 | 8.89° C | 41% | 1012.9 hPa | 0 mm | - | 637 W/m² | - |
| 1778166789 | 8.89° C | 43% | 1012.9 hPa | 0 mm | - | 628 W/m² | - |
| 1778166486 | 8.89° C | 43% | 1012.6 hPa | 0 mm | - | 592 W/m² | - |
| 1778166183 | 8.33° C | 41% | 1012.8 hPa | 0 mm | - | 573 W/m² | - |
| 1778165879 | 8.33° C | 44% | 1012.9 hPa | 0 mm | - | 546 W/m² | - |
| 1778165576 | 7.78° C | 43% | 1012.9 hPa | 0 mm | - | 538 W/m² | - |
| 1778165273 | 7.78° C | 46% | 1012.9 hPa | 0 mm | - | 521 W/m² | - |
| 1778164970 | 8.33° C | 45% | 1013 hPa | 0 mm | - | 489 W/m² | - |
| 1778164666 | 8.33° C | 46% | 1012.6 hPa | 0 mm | - | 510 W/m² | - |
| 1778164364 | 8.33° C | 46% | 1013 hPa | 0 mm | - | 509 W/m² | - |
| 1778164060 | 7.78° C | 48% | 1012.9 hPa | 0 mm | - | 492 W/m² | - |
| 1778163756 | 8.33° C | 46% | 1012.9 hPa | 0 mm | - | 453 W/m² | - |
| 1778163453 | 7.78° C | 49% | 1013 hPa | 0 mm | - | 408 W/m² | - |
| 1778163150 | 7.78° C | 46% | 1013 hPa | 0 mm | - | 392 W/m² | - |
| 1778162846 | 7.78° C | 49% | 1012.9 hPa | 0 mm | - | 356 W/m² | - |
| 1778162544 | 7.22° C | 49% | 1013.1 hPa | 0 mm | - | 362 W/m² | - |
| 1778162240 | 7.22° C | 49% | 1013.2 hPa | 0 mm | - | 348 W/m² | - |
| 1778161938 | 7.22° C | 52% | 1013.3 hPa | 0 mm | - | 340 W/m² | - |
| 1778161634 | 6.67° C | 52% | 1013.4 hPa | 0 mm | - | 323 W/m² | - |
| 1778161330 | 6.67° C | 53% | 1013.1 hPa | 0 mm | - | 308 W/m² | - |
| 1778161026 | 6.67° C | 54% | 1013.2 hPa | 0 mm | - | 303 W/m² | - |
| 1778160724 | 6.67° C | 55% | 1013.3 hPa | 0 mm | - | 275 W/m² | - |
| 1778160421 | 6.11° C | 55% | 1013.3 hPa | 0 mm | - | 260 W/m² | - |
| 1778160117 | 6.11° C | 57% | 1013.3 hPa | 0 mm | - | 253 W/m² | - |
| 1778159814 | 5.56° C | 58% | 1013.3 hPa | 0 mm | - | 235 W/m² | - |
* Rain latest hour (hover to see other rain measurements)
** Current wind speed in m/s (hover to see current wind gust speed)